Location: Highridge
(54.0333°N, 114.1333°W)
Time: 13:56:36
(UTC+00:00)

Oscar 19 - Pass Details

Date: 04 December 2023
Orbit: 771 x 789 km, 98.9° (Epoch: 01 March)

Event Time Altitude Azimuth Distance (km) Brightness Sun altitude
Rises 10:52:29 0° 28° (NNE) 3,273 14.4 -40.2°
Reaches altitude 10° 10:55:58 10° 53° (NE) 2,343 13.7 -39.7°
Maximum altitude 10:58:43 14° 85° (E) 2,050 13.4 -39.3°
Drops below altitude 10° 11:01:27 10° 118° (ESE) 2,340 13.5 -38.9°
Sets 11:04:55 0° 142° (SE) 3,266 14.1 -38.4°
